| time (UTC) | temp F | wind direction | speed knots | gust knots | rain 1hr in | rain 24hr in | rain mn in | humidity % | barometer mb |
| 20260906103243 | 82 | 0.0 | 0.0 | 0.00 | 0.00 | 0.00 | 80 | ||
| 20260906102727 | 82 | 0.0 | 0.0 | 0.00 | 0.00 | 0.00 | 80 | ||
| 20260906102212 | 82 | 0.0 | 0.0 | 0.00 | 0.00 | 0.00 | 79 | ||
| 20260906101701 | 82 | 0.0 | 0.0 | 0.00 | 0.00 | 0.00 | 79 | ||
| 20260906101143 | 82 | 0.0 | 0.0 | 0.00 | 0.00 | 0.00 | 79 | ||
| 20260906100627 | 82 | 0.0 | 0.0 | 0.00 | 0.00 | 0.00 | 79 | ||
| 20260906100111 | 83 | 0.0 | 0.0 | 0.00 | 0.00 | 0.00 | 79 | ||
| 20260906095556 | 83 | 0.0 | 0.0 | 0.00 | 0.00 | 0.00 | 79 | ||
| 20260906095040 | 83 | 0.0 | 0.0 | 0.00 | 0.00 | 0.00 | 79 | ||
| 20260906094527 | 83 | 0.0 | 0.0 | 0.00 | 0.00 | 0.00 | 79 | ||
| 20260906094011 | 83 | 0.0 | 0.0 | 0.00 | 0.00 | 0.00 | 79 | ||
| 20260906093455 | 83 | 0.0 | 0.0 | 0.00 | 0.00 | 0.00 | 78 | ||
| 20260906092941 | 83 | 0.0 | 0.0 | 0.00 | 0.00 | 0.00 | 78 | ||
| 20260906092424 | 83 | 0.0 | 0.0 | 0.00 | 0.00 | 0.00 | 78 | ||
| 20260906091908 | 83 | 0.0 | 0.0 | 0.00 | 0.00 | 0.00 | 78 | ||
| 20260906091355 | 83 | 0.0 | 0.0 | 0.00 | 0.00 | 0.00 | 78 | ||
| 20260906090843 | 83 | 0.0 | 0.0 | 0.00 | 0.00 | 0.00 | 78 | ||
| 20260906090315 | 83 | 0.0 | 0.0 | 0.00 | 0.00 | 0.00 | 78 | ||
| 20260906085759 | 83 | 0.0 | 0.0 | 0.00 | 0.00 | 0.00 | 78 | ||
| 20260906085246 | 83 | 0.0 | 0.0 | 0.00 | 0.00 | 0.00 | 78 | ||
| 20260906084730 | 83 | 0.0 | 0.0 | 0.00 | 0.00 | 0.00 | 78 | ||
| 20260906084215 | 83 | 0.0 | 0.0 | 0.00 | 0.00 | 0.00 | 77 | ||
| 20260906083659 | 83 | 0.0 | 0.0 | 0.00 | 0.00 | 0.00 | 77 | ||
| 20260906083143 | 83 | 0.0 | 0.0 | 0.00 | 0.00 | 0.00 | 77 | ||
| 20260906082627 | 83 | 0.0 | 0.0 | 0.00 | 0.00 | 0.00 | 76 | ||
| 20260906082115 | 83 | 0.0 | 0.0 | 0.00 | 0.00 | 0.00 | 75 | ||
| 20260906081558 | 84 | 0.0 | 0.0 | 0.00 | 0.00 | 0.00 | 76 | ||
| 20260906081043 | 84 | 0.0 | 0.0 | 0.00 | 0.00 | 0.00 | 76 | ||
| 20260906080527 | 84 | 0.0 | 0.0 | 0.00 | 0.00 | 0.00 | 76 | ||
| 20260906080011 | 84 | 0.0 | 0.0 | 0.00 | 0.00 | 0.00 | 76 | ||
| 20260906075456 | 84 | 0.0 | 0.0 | 0.00 | 0.00 | 0.00 | 76 | ||
| 20260906074943 | 84 | 0.0 | 0.0 | 0.00 | 0.00 | 0.00 | 76 | ||
| 20260906074427 | 84 | 0.0 | 0.0 | 0.00 | 0.00 | 0.00 | 76 | ||
| 20260906073911 | 84 | 0.0 | 0.0 | 0.00 | 0.00 | 0.00 | 76 | ||
| 20260906073356 | 84 | 0.0 | 0.0 | 0.00 | 0.00 | 0.00 | 76 | ||
| 20260906072840 | 84 | 0.0 | 0.0 | 0.00 | 0.00 | 0.00 | 76 | ||
| 20260906072324 | 85 | 0.0 | 0.0 | 0.00 | 0.00 | 0.00 | 76 | ||
| 20260906071811 | 85 | 0.0 | 0.0 | 0.00 | 0.00 | 0.00 | 75 | ||
| 20260906071256 | 85 | 0.0 | 0.0 | 0.00 | 0.00 | 0.00 | 74 | ||
| 20260906070740 | 85 | 0.0 | 0.0 | 0.00 | 0.00 | 0.00 | 74 | ||
| 20260906070224 | 86 | 0.0 | 0.0 | 0.00 | 0.00 | 0.00 | 72 | ||
| 20260906065709 | 87 | 0.0 | 0.0 | 0.00 | 0.00 | 0.00 | 71 | ||
| 20260906065153 | 85 | 0.0 | 0.0 | 0.00 | 0.00 | 0.00 | 72 | ||
| 20260906064640 | 84 | 0.0 | 0.0 | 0.00 | 0.00 | 0.00 | 72 | ||
| 20260906064124 | 84 | 0.0 | 0.0 | 0.00 | 0.00 | 0.00 | 72 | ||
| 20260906063608 | 84 | 0.0 | 0.0 | 0.00 | 0.00 | 0.00 | 73 | ||
| 20260906063053 | 83 | 0.0 | 0.0 | 0.00 | 0.00 | 0.00 | 74 | ||
| 20260906062537 | 83 | 0.0 | 0.0 | 0.00 | 0.00 | 0.00 | 78 | ||
| 20260906062021 | 82 | 0.0 | 0.0 | 0.00 | 0.00 | 0.00 | 76 | ||
| 20260906061508 | 82 | 0.0 | 0.0 | 0.00 | 0.00 | 0.00 | 72 | ||
| 20260906060955 | 83 | 0.0 | 0.0 | 0.00 | 0.00 | 0.00 | 71 | ||
| 20260906060428 | 85 | 0.0 | 0.0 | 0.00 | 0.00 | 0.00 | 69 | ||
| 20260906055912 | 89 | 0.0 | 0.0 | 0.00 | 0.00 | 0.00 | 94 | ||
| 20260906055359 | 89 | 0.0 | 0.0 | 0.00 | 0.00 | 0.00 | 98 | ||
| 20260906054843 | 88 | 0.0 | 0.0 | 0.00 | 0.00 | 0.00 | 10 | ||
| 20260906054327 | 87 | 0.0 | 0.0 | 0.00 | 0.00 | 0.00 | 10 | ||
| 20260906053823 | 87 | 0.0 | 0.0 | 0.00 | 0.00 | 0.00 | 10 | ||
| 20260906053257 | 86 | 0.0 | 0.0 | 0.00 | 0.00 | 0.00 | 10 | ||
| 20260906052741 | 85 | 0.0 | 0.0 | 0.00 | 0.00 | 0.00 | 10 | ||
| 20260906052228 | 84 | 0.0 | 0.0 | 0.00 | 0.00 | 0.00 | 99 | ||
| 20260906051712 | 82 | 0.0 | 0.0 | 0.00 | 0.00 | 0.00 | 88 | ||
| 20260906051156 | 82 | 0.0 | 0.0 | 0.00 | 0.00 | 0.00 | 73 | ||
| 20260906050641 | 82 | 0.0 | 0.0 | 0.00 | 0.00 | 0.00 | 70 | ||
| 20260906050125 | 82 | 0.0 | 0.0 | 0.00 | 0.00 | 0.00 | 69 | ||
| 20260906045609 | 82 | 0.0 | 0.0 | 0.00 | 0.00 | 0.00 | 69 | ||
| 20260906045056 | 82 | 0.0 | 0.0 | 0.00 | 0.00 | 0.00 | 69 | ||
| 20260906044541 | 82 | 0.0 | 0.0 | 0.00 | 0.00 | 0.00 | 69 | ||
| 20260906044025 | 82 | 0.0 | 0.0 | 0.00 | 0.00 | 0.00 | 68 | ||
| 20260906043509 | 82 | 0.0 | 0.0 | 0.00 | 0.00 | 0.00 | 68 | ||
| 20260906042953 | 82 | 0.0 | 0.0 | 0.00 | 0.00 | 0.00 | 69 | ||
| 20260906042438 | 82 | 0.0 | 0.0 | 0.00 | 0.00 | 0.00 | 68 | ||
| 20260906041925 | 82 | 0.0 | 0.0 | 0.00 | 0.00 | 0.00 | 68 | ||
| 20260906041409 | 82 | 0.0 | 0.0 | 0.00 | 0.00 | 0.00 | 68 | ||
| 20260906040853 | 82 | 0.0 | 0.0 | 0.00 | 0.00 | 0.00 | 67 | ||
| 20260906040338 | 82 | 0.0 | 0.0 | 0.00 | 0.00 | 0.00 | 66 | ||
| 20260906035822 | 82 | 0.0 | 0.0 | 0.00 | 0.00 | 0.00 | 67 | ||
| 20260906035306 | 82 | 0.0 | 0.0 | 0.00 | 0.00 | 0.00 | 67 | ||
| 20260906034753 | 82 | 0.0 | 0.0 | 0.00 | 0.00 | 0.00 | 66 | ||
| 20260906034237 | 82 | 0.0 | 0.0 | 0.00 | 0.00 | 0.00 | 66 | ||
| 20260906033721 | 82 | 0.0 | 0.0 | 0.00 | 0.00 | 0.00 | 66 | ||
| 20260906033206 | 82 | 0.0 | 0.0 | 0.00 | 0.00 | 0.00 | 66 | ||
| 20260906032650 | 83 | 0.0 | 0.0 | 0.00 | 0.00 | 0.00 | 67 | ||
| 20260906032134 | 83 | 0.0 | 0.0 | 0.00 | 0.00 | 0.00 | 67 | ||
| 20260906031623 | 83 | 0.0 | 0.0 | 0.00 | 0.00 | 0.00 | 66 | ||
| 20260906031108 | 83 | 0.0 | 0.0 | 0.00 | 0.00 | 0.00 | 66 | ||
| 20260906030540 | 83 | 0.0 | 0.0 | 0.00 | 0.00 | 0.00 | 66 | ||
| 20260906030025 | 83 | 0.0 | 0.0 | 0.00 | 0.00 | 0.00 | 66 | ||
| 20260906025512 | 83 | 0.0 | 0.0 | 0.00 | 0.00 | 0.00 | 66 | ||
| 20260906024956 | 83 | 0.0 | 0.0 | 0.00 | 0.00 | 0.00 | 66 | ||
| 20260906024440 | 83 | 0.0 | 0.0 | 0.00 | 0.00 | 0.00 | 66 | ||
| 20260906023925 | 83 | 0.0 | 0.0 | 0.00 | 0.00 | 0.00 | 66 | ||
| 20260906023409 | 83 | 0.0 | 0.0 | 0.00 | 0.00 | 0.00 | 66 | ||
| 20260906022853 | 83 | 0.0 | 0.0 | 0.00 | 0.00 | 0.00 | 65 | ||
| 20260906022337 | 83 | 0.0 | 0.0 | 0.00 | 0.00 | 0.00 | 65 | ||
| 20260906021821 | 83 | 0.0 | 0.0 | 0.00 | 0.00 | 0.00 | 65 | ||
| 20260906021306 | 83 | 0.0 | 0.0 | 0.00 | 0.00 | 0.00 | 64 | ||
| 20260906020750 | 83 | 0.0 | 0.0 | 0.00 | 0.00 | 0.00 | 64 | ||
| 20260906020234 | 83 | 0.0 | 0.0 | 0.00 | 0.00 | 0.00 | 63 | ||
| 20260906015718 | 83 | 0.0 | 0.0 | 0.00 | 0.00 | 0.00 | 63 | ||
| 20260906015205 | 83 | 0.0 | 0.0 | 0.00 | 0.00 | 0.00 | 63 | ||
| 20260906014650 | 83 | 0.0 | 0.0 | 0.00 | 0.00 | 0.00 | 62 | ||
| 20260906014134 | 83 | 0.0 | 0.0 | 0.00 | 0.00 | 0.00 | 62 | ||
| 20260906013618 | 83 | 0.0 | 0.0 | 0.00 | 0.00 | 0.00 | 63 | ||
| 20260906013102 | 83 | 0.0 | 0.0 | 0.00 | 0.00 | 0.00 | 63 | ||
| 20260906012546 | 83 | 0.0 | 0.0 | 0.00 | 0.00 | 0.00 | 62 | ||
| 20260906012033 | 83 | 0.0 | 0.0 | 0.00 | 0.00 | 0.00 | 63 | ||
| 20260906011518 | 83 | 0.0 | 0.0 | 0.00 | 0.00 | 0.00 | 63 | ||
| 20260906011002 | 83 | 0.0 | 0.0 | 0.00 | 0.00 | 0.00 | 62 | ||
| 20260906010446 | 83 | 0.0 | 0.0 | 0.00 | 0.00 | 0.00 | 62 | ||
| 20260906005930 | 84 | 0.0 | 0.0 | 0.00 | 0.00 | 0.00 | 62 | ||
| 20260906005414 | 84 | 0.0 | 0.0 | 0.00 | 0.00 | 0.00 | 62 | ||
| 20260906004902 | 84 | 0.0 | 0.0 | 0.00 | 0.00 | 0.00 | 62 | ||
| 20260906004347 | 84 | 0.0 | 0.0 | 0.00 | 0.00 | 0.00 | 61 | ||
| 20260906003830 | 84 | 0.0 | 0.0 | 0.00 | 0.00 | 0.00 | 61 | ||
| 20260906003314 | 84 | 0.0 | 0.0 | 0.00 | 0.00 | 0.00 | 62 | ||
| 20260906002759 | 84 | 0.0 | 0.0 | 0.00 | 0.00 | 0.00 | 62 | ||
| 20260906002243 | 84 | 0.0 | 0.0 | 0.00 | 0.00 | 0.00 | 61 | ||
| 20260906001730 | 84 | 0.0 | 0.0 | 0.00 | 0.00 | 0.00 | 61 | ||
| 20260906001217 | 84 | 0.0 | 0.0 | 0.00 | 0.00 | 0.00 | 61 | ||
| 20260906000650 | 84 | 0.0 | 0.0 | 0.00 | 0.00 | 0.00 | 61 | ||
| 20260906000134 | 84 | 0.0 | 0.0 | 0.00 | 0.00 | 0.00 | 61 | ||
| 20260905235621 | 85 | 0.0 | 0.0 | 0.00 | 0.00 | 0.00 | 61 | ||
| 20260905235105 | 85 | 0.0 | 0.0 | 0.00 | 0.00 | 0.00 | 61 | ||
| 20260905234549 | 85 | 0.0 | 0.0 | 0.00 | 0.00 | 0.00 | 61 | ||
| 20260905234034 | 85 | 0.0 | 0.0 | 0.00 | 0.00 | 0.00 | 61 | ||
| 20260905233518 | 85 | 0.0 | 0.0 | 0.00 | 0.00 | 0.00 | 60 | ||
| 20260905233002 | 85 | 0.0 | 0.0 | 0.00 | 0.00 | 0.00 | 60 | ||
| 20260905232449 | 85 | 0.0 | 0.0 | 0.00 | 0.00 | 0.00 | 60 | ||
| 20260905231933 | 85 | 0.0 | 0.0 | 0.00 | 0.00 | 0.00 | 60 | ||
| 20260905231418 | 85 | 0.0 | 0.0 | 0.00 | 0.00 | 0.00 | 59 | ||
| 20260905230902 | 85 | 0.0 | 0.0 | 0.00 | 0.00 | 0.00 | 60 | ||
| 20260905230346 | 85 | 0.0 | 0.0 | 0.00 | 0.00 | 0.00 | 60 | ||
| 20260905225830 | 85 | 0.0 | 0.0 | 0.00 | 0.00 | 0.00 | 59 | ||
| 20260905225317 | 85 | 0.0 | 0.0 | 0.00 | 0.00 | 0.00 | 60 | ||
| 20260905224802 | 85 | 0.0 | 0.0 | 0.00 | 0.00 | 0.00 | 60 | ||
| 20260905224246 | 85 | 0.0 | 0.0 | 0.00 | 0.00 | 0.00 | 60 | ||
| 20260905223730 | 85 | 0.0 | 0.0 | 0.00 | 0.00 | 0.00 | 61 | ||
| 20260905223214 | 85 | 0.0 | 0.0 | 0.00 | 0.00 | 0.00 | 61 | ||
| 20260905222658 | 85 | 0.0 | 0.0 | 0.00 | 0.00 | 0.00 | 60 | ||
| 20260905222146 | 85 | 0.0 | 0.0 | 0.00 | 0.00 | 0.00 | 60 | ||
| 20260905221630 | 85 | 0.0 | 0.0 | 0.00 | 0.00 | 0.00 | 60 | ||
| 20260905221114 | 85 | 0.0 | 0.0 | 0.00 | 0.00 | 0.00 | 60 | ||
| 20260905220558 | 85 | 0.0 | 0.0 | 0.00 | 0.00 | 0.00 | 59 | ||
| 20260905220043 | 85 | 0.0 | 0.0 | 0.00 | 0.00 | 0.00 | 59 | ||
| 20260905215527 | 85 | 0.0 | 0.0 | 0.00 | 0.00 | 0.00 | 58 | ||
| 20260905215014 | 85 | 0.0 | 0.0 | 0.00 | 0.00 | 0.00 | 58 | ||
| 20260905214458 | 85 | 0.0 | 0.0 | 0.00 | 0.00 | 0.00 | 58 | ||
| 20260905213942 | 85 | 0.0 | 0.0 | 0.00 | 0.00 | 0.00 | 58 | ||
| 20260905213427 | 85 | 0.0 | 0.0 | 0.00 | 0.00 | 0.00 | 59 | ||
| 20260905212911 | 86 | 0.0 | 0.0 | 0.00 | 0.00 | 0.00 | 59 | ||
| 20260905212355 | 86 | 0.0 | 0.0 | 0.00 | 0.00 | 0.00 | 59 | ||
| 20260905211842 | 86 | 0.0 | 0.0 | 0.00 | 0.00 | 0.00 | 58 | ||
| 20260905211329 | 86 | 0.0 | 0.0 | 0.00 | 0.00 | 0.00 | 58 | ||
| 20260905210802 | 86 | 0.0 | 0.0 | 0.00 | 0.00 | 0.00 | 57 | ||
| 20260905210246 | 86 | 0.0 | 0.0 | 0.00 | 0.00 | 0.00 | 56 | ||
| 20260905205733 | 86 | 0.0 | 0.0 | 0.00 | 0.00 | 0.00 | 56 | ||
| 20260905205218 | 86 | 0.0 | 0.0 | 0.00 | 0.00 | 0.00 | 56 | ||
| 20260905204702 | 86 | 0.0 | 0.0 | 0.00 | 0.00 | 0.00 | 55 | ||
| 20260905204146 | 86 | 0.0 | 0.0 | 0.00 | 0.00 | 0.00 | 56 | ||
| 20260905203630 | 86 | 0.0 | 0.0 | 0.00 | 0.00 | 0.00 | 56 | ||
| 20260905203114 | 86 | 0.0 | 0.0 | 0.00 | 0.00 | 0.00 | 57 | ||
| 20260905202602 | 86 | 0.0 | 0.0 | 0.00 | 0.00 | 0.00 | 56 | ||
| 20260905202046 | 86 | 0.0 | 0.0 | 0.00 | 0.00 | 0.00 | 57 | ||
| 20260905201530 | 86 | 0.0 | 0.0 | 0.00 | 0.00 | 0.00 | 57 | ||
| 20260905201014 | 86 | 0.0 | 0.0 | 0.00 | 0.00 | 0.00 | 57 | ||
| 20260905200458 | 86 | 0.0 | 0.0 | 0.00 | 0.00 | 0.00 | 57 | ||
| 20260905195943 | 86 | 0.0 | 0.0 | 0.00 | 0.00 | 0.00 | 57 | ||
| 20260905195430 | 86 | 0.0 | 0.0 | 0.00 | 0.00 | 0.00 | 58 | ||
| 20260905194914 | 86 | 0.0 | 0.0 | 0.00 | 0.00 | 0.00 | 58 | ||
| 20260905194358 | 86 | 0.0 | 0.0 | 0.00 | 0.00 | 0.00 | 58 | ||
| 20260905193842 | 86 | 0.0 | 0.0 | 0.00 | 0.00 | 0.00 | 58 | ||
| 20260905193327 | 86 | 0.0 | 0.0 | 0.00 | 0.00 | 0.00 | 59 | ||
| 20260905192811 | 86 | 0.0 | 0.0 | 0.00 | 0.00 | 0.00 | 59 | ||
| 20260905192258 | 86 | 0.0 | 0.0 | 0.00 | 0.00 | 0.00 | 59 | ||
| 20260905191742 | 86 | 0.0 | 0.0 | 0.00 | 0.00 | 0.00 | 59 | ||
| 20260905191226 | 86 | 0.0 | 0.0 | 0.00 | 0.00 | 0.00 | 60 | ||
| 20260905190710 | 86 | 0.0 | 0.0 | 0.00 | 0.00 | 0.00 | 59 | ||
| 20260905190154 | 86 | 0.0 | 0.0 | 0.00 | 0.00 | 0.00 | 60 | ||
| 20260905185639 | 86 | 0.0 | 0.0 | 0.00 | 0.00 | 0.00 | 60 | ||
| 20260905185126 | 86 | 0.0 | 0.0 | 0.00 | 0.00 | 0.00 | 60 | ||
| 20260905184610 | 86 | 0.0 | 0.0 | 0.00 | 0.00 | 0.00 | 60 | ||
| 20260905184054 | 86 | 0.0 | 0.0 | 0.00 | 0.00 | 0.00 | 60 | ||
| 20260905183538 | 86 | 0.0 | 0.0 | 0.00 | 0.00 | 0.00 | 59 | ||
| 20260905183023 | 86 | 0.0 | 0.0 | 0.00 | 0.00 | 0.00 | 59 | ||
| 20260905182507 | 86 | 0.0 | 0.0 | 0.00 | 0.00 | 0.00 | 59 | ||
| 20260905181954 | 86 | 0.0 | 0.0 | 0.00 | 0.00 | 0.00 | 59 | ||
| 20260905181442 | 86 | 0.0 | 0.0 | 0.00 | 0.00 | 0.00 | 59 | ||
| 20260905180914 | 85 | 0.0 | 0.0 | 0.00 | 0.00 | 0.00 | 59 | ||
| 20260905180358 | 85 | 0.0 | 0.0 | 0.00 | 0.00 | 0.00 | 59 | ||
| 20260905175845 | 85 | 0.0 | 0.0 | 0.00 | 0.00 | 0.00 | 58 | ||
| 20260905175329 | 85 | 0.0 | 0.0 | 0.00 | 0.00 | 0.00 | 58 | ||
| 20260905174814 | 85 | 0.0 | 0.0 | 0.00 | 0.00 | 0.00 | 58 | ||
| 20260905174258 | 85 | 0.0 | 0.0 | 0.00 | 0.00 | 0.00 | 58 | ||
| 20260905173742 | 85 | 0.0 | 0.0 | 0.00 | 0.00 | 0.00 | 57 | ||
| 20260905173227 | 85 | 0.0 | 0.0 | 0.00 | 0.00 | 0.00 | 58 | ||
| 20260905172714 | 85 | 0.0 | 0.0 | 0.00 | 0.00 | 0.00 | 57 | ||
| 20260905172201 | 85 | 0.0 | 0.0 | 0.00 | 0.00 | 0.00 | 59 | ||
| 20260905171642 | 85 | 0.0 | 0.0 | 0.00 | 0.00 | 0.00 | 59 | ||
| 20260905171126 | 85 | 0.0 | 0.0 | 0.00 | 0.00 | 0.00 | 59 | ||
| 20260905170611 | 85 | 0.0 | 0.0 | 0.00 | 0.00 | 0.00 | 59 | ||
| 20260905170055 | 85 | 0.0 | 0.0 | 0.00 | 0.00 | 0.00 | 58 | ||
| 20260905165542 | 85 | 0.0 | 0.0 | 0.00 | 0.00 | 0.00 | 59 | ||
| 20260905165026 | 85 | 0.0 | 0.0 | 0.00 | 0.00 | 0.00 | 58 | ||
| 20260905164510 | 85 | 0.0 | 0.0 | 0.00 | 0.00 | 0.00 | 58 | ||
| 20260905163955 | 84 | 0.0 | 0.0 | 0.00 | 0.00 | 0.00 | 57 | ||
| 20260905163439 | 84 | 0.0 | 0.0 | 0.00 | 0.00 | 0.00 | 58 | ||
| 20260905162923 | 84 | 0.0 | 0.0 | 0.00 | 0.00 | 0.00 | 59 | ||
| 20260905162410 | 84 | 0.0 | 0.0 | 0.00 | 0.00 | 0.00 | 58 | ||
| 20260905161855 | 84 | 0.0 | 0.0 | 0.00 | 0.00 | 0.00 | 58 | ||
| 20260905161339 | 84 | 0.0 | 0.0 | 0.00 | 0.00 | 0.00 | 59 | ||
| 20260905160823 | 83 | 0.0 | 0.0 | 0.00 | 0.00 | 0.00 | 59 | ||
| 20260905160308 | 83 | 0.0 | 0.0 | 0.00 | 0.00 | 0.00 | 59 | ||
| 20260905155751 | 83 | 0.0 | 0.0 | 0.00 | 0.00 | 0.00 | 59 | ||
| 20260905155238 | 83 | 0.0 | 0.0 | 0.00 | 0.00 | 0.00 | 58 | ||
| 20260905154723 | 83 | 0.0 | 0.0 | 0.00 | 0.00 | 0.00 | 58 | ||
| 20260905154207 | 83 | 0.0 | 0.0 | 0.00 | 0.00 | 0.00 | 58 | ||
| 20260905153651 | 83 | 0.0 | 0.0 | 0.00 | 0.00 | 0.00 | 58 | ||
| 20260905153135 | 83 | 0.0 | 0.0 | 0.00 | 0.00 | 0.00 | 59 | ||
| 20260905152619 | 83 | 0.0 | 0.0 | 0.00 | 0.00 | 0.00 | 59 | ||
| 20260905152106 | 83 | 0.0 | 0.0 | 0.00 | 0.00 | 0.00 | 59 | ||
| 20260905151554 | 83 | 0.0 | 0.0 | 0.00 | 0.00 | 0.00 | 59 | ||
| 20260905151026 | 83 | 0.0 | 0.0 | 0.00 | 0.00 | 0.00 | 58 | ||
| 20260905150510 | 82 | 0.0 | 0.0 | 0.00 | 0.00 | 0.00 | 58 | ||
| 20260905145958 | 82 | 0.0 | 0.0 | 0.00 | 0.00 | 0.00 | 58 | ||
| 20260905145442 | 82 | 0.0 | 0.0 | 0.00 | 0.00 | 0.00 | 58 | ||
| 20260905144926 | 82 | 0.0 | 0.0 | 0.00 | 0.00 | 0.00 | 58 | ||
| 20260905144410 | 82 | 0.0 | 0.0 | 0.00 | 0.00 | 0.00 | 58 | ||
| 20260905143854 | 82 | 0.0 | 0.0 | 0.00 | 0.00 | 0.00 | 58 | ||
| 20260905143338 | 82 | 0.0 | 0.0 | 0.00 | 0.00 | 0.00 | 58 | ||
| 20260905142826 | 82 | 0.0 | 0.0 | 0.00 | 0.00 | 0.00 | 57 | ||
| 20260905142310 | 82 | 0.0 | 0.0 | 0.00 | 0.00 | 0.00 | 61 | ||
| 20260905141754 | 82 | 0.0 | 0.0 | 0.00 | 0.00 | 0.00 | 63 | ||
| 20260905141238 | 81 | 0.0 | 0.0 | 0.00 | 0.00 | 0.00 | 63 | ||
| 20260905140722 | 81 | 0.0 | 0.0 | 0.00 | 0.00 | 0.00 | 63 | ||
| 20260905140206 | 81 | 0.0 | 0.0 | 0.00 | 0.00 | 0.00 | 65 | ||
| 20260905135654 | 81 | 0.0 | 0.0 | 0.00 | 0.00 | 0.00 | 64 | ||
| 20260905135138 | 81 | 0.0 | 0.0 | 0.00 | 0.00 | 0.00 | 65 | ||
| 20260905134622 | 81 | 0.0 | 0.0 | 0.00 | 0.00 | 0.00 | 65 | ||
| 20260905134106 | 81 | 0.0 | 0.0 | 0.00 | 0.00 | 0.00 | 65 | ||
| 20260905133550 | 81 | 0.0 | 0.0 | 0.00 | 0.00 | 0.00 | 66 | ||
| 20260905133035 | 81 | 0.0 | 0.0 | 0.00 | 0.00 | 0.00 | 66 | ||
| 20260905132522 | 81 | 0.0 | 0.0 | 0.00 | 0.00 | 0.00 | 67 | ||
| 20260905132006 | 81 | 0.0 | 0.0 | 0.00 | 0.00 | 0.00 | 66 | ||
| 20260905131450 | 80 | 0.0 | 0.0 | 0.00 | 0.00 | 0.00 | 68 | ||
| 20260905130935 | 80 | 0.0 | 0.0 | 0.00 | 0.00 | 0.00 | 69 | ||
| 20260905130419 | 80 | 0.0 | 0.0 | 0.00 | 0.00 | 0.00 | 69 | ||
| 20260905125903 | 80 | 0.0 | 0.0 | 0.00 | 0.00 | 0.00 | 69 | ||
| 20260905125350 | 80 | 0.0 | 0.0 | 0.00 | 0.00 | 0.00 | 69 | ||
| 20260905124834 | 80 | 0.0 | 0.0 | 0.00 | 0.00 | 0.00 | 69 | ||
| 20260905124319 | 80 | 0.0 | 0.0 | 0.00 | 0.00 | 0.00 | 69 | ||
| 20260905123803 | 80 | 0.0 | 0.0 | 0.00 | 0.00 | 0.00 | 69 | ||
| 20260905123247 | 80 | 0.0 | 0.0 | 0.00 | 0.00 | 0.00 | 69 | ||
| 20260905122731 | 80 | 0.0 | 0.0 | 0.00 | 0.00 | 0.00 | 70 | ||
| 20260905122218 | 80 | 0.0 | 0.0 | 0.00 | 0.00 | 0.00 | 70 | ||
| 20260905121706 | 80 | 0.0 | 0.0 | 0.00 | 0.00 | 0.00 | 71 | ||
| 20260905121138 | 80 | 0.0 | 0.0 | 0.00 | 0.00 | 0.00 | 73 | ||
| 20260905120622 | 80 | 0.0 | 0.0 | 0.00 | 0.00 | 0.00 | 73 | ||
| 20260905120109 | 80 | 0.0 | 0.0 | 0.00 | 0.00 | 0.00 | 74 | ||
| 20260905115554 | 80 | 0.0 | 0.0 | 0.00 | 0.00 | 0.00 | 76 | ||
| 20260905115038 | 80 | 0.0 | 0.0 | 0.00 | 0.00 | 0.00 | 78 | ||
| 20260905114522 | 80 | 0.0 | 0.0 | 0.00 | 0.00 | 0.00 | 79 | ||
| 20260905114006 | 80 | 0.0 | 0.0 | 0.00 | 0.00 | 0.00 | 78 | ||
| 20260905113450 | 80 | 0.0 | 0.0 | 0.00 | 0.00 | 0.00 | 78 | ||
| 20260905112938 | 80 | 0.0 | 0.0 | 0.00 | 0.00 | 0.00 | 78 | ||
| 20260905112422 | 80 | 0.0 | 0.0 | 0.00 | 0.00 | 0.00 | 79 | ||
| 20260905111906 | 79 | 0.0 | 0.0 | 0.00 | 0.00 | 0.00 | 81 | ||
| 20260905111352 | 79 | 0.0 | 0.0 | 0.00 | 0.00 | 0.00 | 83 | ||
| 20260905110834 | 79 | 0.0 | 0.0 | 0.00 | 0.00 | 0.00 | 86 | ||
| 20260905110318 | 79 | 0.0 | 0.0 | 0.00 | 0.00 | 0.00 | 86 | ||
| 20260905105806 | 79 | 0.0 | 0.0 | 0.00 | 0.00 | 0.00 | 89 | ||
| 20260905105250 | 79 | 0.0 | 0.0 | 0.00 | 0.00 | 0.00 | 90 | ||
| 20260905104734 | 79 | 0.0 | 0.0 | 0.00 | 0.00 | 0.00 | 90 | ||
| 20260905104219 | 79 | 0.0 | 0.0 | 0.00 | 0.00 | 0.00 | 91 | ||
| 20260905103703 | 79 | 0.0 | 0.0 | 0.00 | 0.00 | 0.00 | 92 |